Regional Weather Roundup
Issued by NWS

Home | Current Version | Previous Version | Text Only | Print | Product List | Glossary Off
Versions: 1 2 3 4 5 6 7 8 9 10 11 12 13 14 15 16 17 18 19 20 21 22 23 24 25 26 27 28 29 30 31 32 33 34 35 36 37 38 39 40 41 42 43 44 45 46 47 48 49 50

000
ASUS43 KIND 222209
RWRIN

WEATHER ROUNDUP FOR INDIANA
NATIONAL WEATHER SERVICE INDIANAPOLIS IN
600 PM EDT FRI SEP 22 2017

NOTE: "FAIR" INDICATES FEW OR NO CLOUDS BELOW 12,000 FEET WITH NO
SIGNIFICANT WEATHER AND/OR OBSTRUCTIONS TO VISIBILITY.

* - STATION DOES NOT REPORT WEATHER SUCH AS PRECIPITATION OR FOG.

+ - STATION NOT QUALITY CONTROLLED BY THE NATIONAL WEATHER SERVICE.
    USE DATA WITH CAUTION...ESPECIALLY DEWPOINT AND RELATIVE
    HUMIDITY OBSERVATIONS.

INZ001>003-010>013-019-020-222300-
NORTHWEST INDIANA

CITY           SKY/WX    TMP DP  RH WIND       PRES   REMARKS
GARY /AIRPORT/ MOSUNNY   93  59  31 SE6       30.03F
KNOX *+        SUNNY     90  64  43 E3        30.04S
LA PORTE +     SUNNY     91  67  44 E6        30.05S
MICHIGAN CITY+ SUNNY     86  70  58 N3        30.05S
MONTICELLO +   SUNNY     91  65  42 E3        30.02F
RENSSELAER +   MOSUNNY   91  50  24 CALM      30.04S
VALPARAISO     SUNNY     93  65  39 CALM      30.04F HX  95

$$

LMZ046-743>745-222300-
SOUTHERN LAKE MICHIGAN

STATION/POSITION TIME  TEMP    WIND        PRES    WAVE
                       AIR SEA DIR/SP/G            HT
                 (UTC) (F)     (DEG/KT/KT) (MB)    (FT)
BURNS HARBOR     2140   80      80/ 10/ 12 1017.3F
MICHIGAN CITY    2140   82      50/ 11/ 11   N/A
5NW MICH CITY    2200   77 76   60/  4/  4   N/A     0

$$

INZ004-005-014>016-021>024-222300-
NORTH CENTRAL INDIANA

CITY           SKY/WX    TMP DP  RH WIND       PRES   REMARKS
ELKHART        SUNNY     91  66  43 CALM      30.05F
GOSHEN         SUNNY     90  67  46 E5        30.06S
LOGANSPORT +   SUNNY     90  64  43 E3        30.05S
PERU/GRISSOM   MOSUNNY   90  69  50 NE6       30.04S
SOUTH BEND     SUNNY     90  67  46 SW5       30.06S
WARSAW +       SUNNY     88  68  51 E3        30.06S

$$

INZ006>009-017-018-025>027-222300-
NORTHEAST INDIANA

CITY           SKY/WX    TMP DP  RH WIND       PRES   REMARKS
AUBURN +       SUNNY     88  64  45 NE3       30.07S
FORT WAYNE     MOSUNNY   87  69  54 NE8       30.06S
HUNTINGTON +   MOSUNNY   88  67  48 NE3       30.05S
KENDALLVILLE + SUNNY     89  67  49 CALM      30.08S

$$

INZ028-029-035-036-043>045-051>053-222300-
WEST CENTRAL INDIANA

CITY           SKY/WX    TMP DP  RH WIND       PRES   REMARKS
GREENCASTLE +  SUNNY     84  64  51 CALM      30.04S
LAFAYETTE      CLOUDY    90  67  46 VRB3      30.02S
TERRE HAUTE    SUNNY     93  62  35 E5        30.01F

$$

INZ030>032-037>040-046>048-054>057-064-065-222300-
CENTRAL INDIANA

CITY           SKY/WX    TMP DP  RH WIND       PRES   REMARKS
CP ATTERBURY + SUNNY     88  68  51 S3        30.04R
COLUMBUS       MOSUNNY   88  57  35 CALM      30.03S
FISHERS *+     CLOUDY    81  70  69 SE7       30.06R
FRANKFORT +    CLOUDY    89  68  50 E5        30.06S
GREENWOOD *+   CLOUDY    91  67  46 NE29G38   30.06R
INDIANAPOLIS   PTSUNNY   89  65  44 E10       30.04R THUNDER
-EAGLE CREEK   MOSUNNY   87  66  49 S6        30.03S
KOKOMO +       LGT RAIN  90  70  51 N13       30.06S HX  95
MT COMFORT *+  CLOUDY    77  68  73 SE8       30.07R
SHELBYVILLE    PTSUNNY   85  64  49 N7        30.04R
ZIONSVILLE +   CLOUDY    85  66  53 SE10      30.06R

$$

INZ033-034-041-042-049-050-058-059-222300-
EAST CENTRAL INDIANA

CITY           SKY/WX    TMP DP  RH WIND       PRES   REMARKS
MUNCIE         SUNNY     85  68  56 W6        30.05S
RICHMOND +     RAIN      88  63  42 E3        30.07S VSB 1

$$

INZ060-061-067>069-081>083-085>088-222300-
SOUTHWEST INDIANA

CITY           SKY/WX    TMP DP  RH WIND       PRES   REMARKS
EVANSVILLE     MOSUNNY   89  65  44 SE5       30.01S
HUNTINGBURG +  SUNNY     87  71  58 E5        30.02F
WASHINGTON +   MOSUNNY   91  62  38 SE6       30.00F

$$

INZ062-063-066-070>080-084-089>092-222300-
SOUTH CENTRAL AND SOUTHEAST INDIANA

CITY           SKY/WX    TMP DP  RH WIND       PRES   REMARKS
BEDFORD +      SUNNY     88  64  45 SE5       30.02S
BLOOMINGTON    MOSUNNY   87  64  46 SE5       30.03S
MADISON *+     SUNNY     86  64  48 E5        30.06S
NORTH VERNON + SUNNY     88  66  48 SE3       30.05S
SEYMOUR +      SUNNY     90  66  45 SE5       30.03S

$$




USA.gov is the U.S. government's official web portal to all federal, state and local government web resources and services.